CBERS 4

Last updated on Mon Sep 07 2026 00:02:45 GMT+0000 (Coordinated Universal Time)

1 40336U 14079A 26249.58798334 .00000100 00000+0 49583-4 0 9990 2 40336 98.3458 303.8345 0001857 105.7518 254.3873 14.35517293615632
UTC large
Height (km)
Speed (km/s)
/
Latitude / Longitude
Inclination (degrees)
Orbital Period (minutes)
Azimuth
Elevation
Range (km)
Doppler Factor

Next 0 passes for location: London (51.5072 / 0.1276)

No passes found over London.
CBERS 4